Location: EverStaR Observatory
(38.9036°N, 94.8303°W)
Time: 15:57:49
(UTC-05:00)

N. Korean satellite - Visible Passes

Search period start: 15 October 2019 00:00
Search period end: 25 October 2019 00:00
Orbit: 455 x 508 km, 97.2° (Epoch: 14 October)

Date Brightness Start Highest point End Pass type
(mag) Time Alt. Az. Time Alt. Az. Time Alt. Az.
15 Oct 8.9 06:41:29 10° NE 06:44:39 29° E 06:47:51 10° SSE visible
16 Oct 10.1 06:17:13 10° ENE 06:19:15 14° E 06:21:17 10° SE visible
17 Oct 10.3 19:33:40 10° WSW 19:35:03 12° W 19:36:26 10° WNW visible
18 Oct 7.6 06:58:41 10° NNE 07:02:13 52° E 07:05:47 10° S visible
18 Oct 9.2 19:06:44 10° SSW 19:09:36 25° W 19:12:30 10° NW visible
19 Oct 9.3 06:33:52 10° NE 06:36:51 24° E 06:39:51 10° SSE visible
20 Oct 10.4 06:10:03 10° ENE 06:11:24 12° E 06:12:46 10° ESE visible
21 Oct 10.0 19:25:06 10° SW 19:27:10 15° W 19:29:14 10° NW visible
22 Oct 8.2 06:50:56 10° NNE 06:54:23 41° E 06:57:53 10° S visible
22 Oct 8.7 18:58:38 10° SSW 19:01:43 32° W 19:04:51 10° NNW visible
23 Oct 9.7 06:26:16 10° NE 06:29:00 20° E 06:31:43 10° SE visible
